This is the latest recevied weather packets stored in our database for station/object K7MT-WX. If no packets are shown the sender has not sent any weather packets the latest 10 day(s).
| Time | Temp. | Humidity | Pressure | Rain* | Wind** | Luminosity | Snow |
|---|---|---|---|---|---|---|---|
| 1777968251 | 2.22° C | 65% | 1016.4 hPa | 0 mm | - | - | - |
| 1777967351 | 2.22° C | 64% | 1016.3 hPa | 0 mm | - | - | - |
| 1777966451 | 2.78° C | 62% | 1016.2 hPa | 0 mm | - | - | - |
| 1777965551 | 2.78° C | 62% | 1016.2 hPa | 0 mm | - | - | - |
| 1777964651 | 2.78° C | 62% | 1016.2 hPa | 0 mm | - | - | - |
| 1777963751 | 2.78° C | 62% | 1016.2 hPa | 0 mm | - | - | - |
| 1777962851 | 3.33° C | 61% | 1016.2 hPa | 0 mm | - | - | - |
| 1777961951 | 3.89° C | 59% | 1016.2 hPa | 0 mm | - | - | - |
| 1777961051 | 5° C | 54% | 1016.2 hPa | 0 mm | - | - | - |
| 1777960151 | 5.56° C | 51% | 1016.1 hPa | 0 mm | - | - | - |
| 1777959251 | 5.56° C | 51% | 1016.1 hPa | 0 mm | - | - | - |
| 1777958351 | 5.56° C | 52% | 1016.2 hPa | 0 mm | - | - | - |
| 1777957451 | 5.56° C | 52% | 1016.2 hPa | 0 mm | - | - | - |
| 1777956551 | 5.56° C | 53% | 1016.2 hPa | 0 mm | - | - | - |
| 1777955651 | 7.22° C | 46% | 1016.1 hPa | 0 mm | - | - | - |
| 1777954751 | 7.78° C | 44% | 1016.1 hPa | 0 mm | - | - | - |
| 1777953851 | 8.33° C | 43% | 1016 hPa | 0 mm | - | - | - |
| 1777952951 | 8.33° C | 43% | 1015.9 hPa | 0 mm | - | - | - |
| 1777952051 | 8.33° C | 45% | 1015.8 hPa | 0 mm | - | - | - |
| 1777951151 | 8.89° C | 42% | 1015.6 hPa | 0 mm | - | - | - |
| 1777950251 | 8.89° C | 41% | 1015.4 hPa | 0 mm | - | - | - |
| 1777949351 | 9.44° C | 41% | 1015.4 hPa | 0 mm | - | - | - |
| 1777948450 | 10° C | 40% | 1015.2 hPa | 0 mm | - | - | - |
| 1777947550 | 10° C | 42% | 1015.2 hPa | 0 mm | - | - | - |
| 1777946651 | 10° C | 43% | 1015.1 hPa | 0 mm | - | - | - |
* Rain latest hour (hover to see other rain measurements)
** Current wind speed in m/s (hover to see current wind gust speed)